IW7DVM-13 Weather Reports


time (UTC)temp
F
wind
direction
speed
knots
gust
knots
rain 1hr
in
rain 24hr
in
rain mn
in
humidity
%
barometer
mb
20260507170003 65 100 0.9 4.3 0.00 0.04 0.04 70 1008.9
20260507165503 65 123 1.7 6.1 0.00 0.04 0.04 69 1009.0
20260507165003 65 103 0.9 1.7 0.00 0.04 0.04 69 1009.1
20260507164503 66 117 1.7 5.2 0.00 0.04 0.04 69 1009.3
20260507164003 66 146 0.9 6.1 0.00 0.04 0.04 68 1009.3
20260507163503 66 98 1.7 5.2 0.00 0.04 0.04 68 1009.2
20260507163003 66 104 1.7 5.2 0.00 0.04 0.04 67 1009.3
20260507162503 67 130 1.7 8.7 0.00 0.04 0.04 67 1009.4
20260507162003 67 118 0.9 4.3 0.00 0.04 0.04 67 1009.4
20260507161503 67 138 1.7 6.1 0.00 0.04 0.04 66 1009.2
20260507161003 67 135 1.7 5.2 0.00 0.04 0.04 66 1009.1
20260507160504 67 134 2.6 7.8 0.00 0.04 0.04 66 1009.0
20260507160003 67 138 2.6 11.3 0.00 0.04 0.04 65 1009.0
20260507155503 68 125 3.5 10.4 0.00 0.04 0.04 64 1009.1
20260507155003 68 83 1.7 5.2 0.00 0.04 0.04 65 1009.1
20260507154503 68 98 2.6 7.8 0.00 0.04 0.04 64 1009.0
20260507154003 68 120 2.6 9.6 0.00 0.04 0.04 64 1009.1
20260507153504 68 138 2.6 7.8 0.00 0.04 0.04 65 1009.2
20260507153003 68 115 1.7 6.1 0.00 0.04 0.04 64 1009.2
20260507152503 68 123 2.6 8.7 0.00 0.04 0.04 64 1009.3
20260507152003 68 124 1.7 7.8 0.00 0.04 0.04 63 1009.3
20260507151503 69 120 2.6 8.7 0.00 0.04 0.04 63 1009.4
20260507151003 69 131 1.7 7.8 0.00 0.04 0.04 62 1009.4
20260507150503 68 138 2.6 7.8 0.00 0.04 0.04 62 1009.4
20260507150003 68 129 2.6 9.6 0.00 0.04 0.04 63 1009.5
20260507145503 69 136 2.6 7.8 0.00 0.04 0.04 62 1009.6
20260507145003 69 132 1.7 7.0 0.00 0.04 0.04 63 1009.6
20260507144503 69 129 2.6 8.7 0.00 0.04 0.04 63 1009.6
20260507144003 69 137 2.6 7.8 0.00 0.04 0.04 63 1009.5
20260507143503 69 153 1.7 7.8 0.00 0.04 0.04 63 1009.5
20260507143003 69 134 2.6 8.7 0.00 0.04 0.04 64 1009.6
20260507142503 69 139 2.6 7.8 0.00 0.04 0.04 64 1009.6
20260507142003 69 134 1.7 6.1 0.00 0.04 0.04 64 1009.7
20260507141503 69 135 1.7 7.0 0.00 0.04 0.04 65 1009.8
20260507141003 69 131 1.7 7.0 0.00 0.04 0.04 65 1009.9
20260507140503 69 145 1.7 6.1 0.00 0.04 0.04 66 1010.0
20260507140003 69 138 2.6 7.8 0.00 0.04 0.04 66 1010.0
20260507135503 70 137 1.7 9.6 0.00 0.04 0.04 66 1010.0
20260507135003 70 153 0.9 3.5 0.00 0.04 0.04 67 1009.9
20260507134503 70 137 0.9 5.2 0.00 0.04 0.04 68 1010.0
20260507134003 69 155 1.7 5.2 0.00 0.04 0.04 68 1009.9
20260507133503 69 149 2.6 7.8 0.00 0.04 0.04 68 1010.1
20260507133003 69 152 1.7 6.1 0.00 0.04 0.04 69 1010.0
20260507132503 68 147 2.6 7.0 0.00 0.04 0.04 69 1009.9
20260507132003 68 144 3.5 7.8 0.00 0.04 0.04 69 1010.1
20260507131503 68 146 2.6 7.0 0.00 0.04 0.04 70 1010.2
20260507131003 67 150 5.2 9.6 0.00 0.04 0.04 70 1010.2
20260507130503 67 142 5.2 9.6 0.00 0.04 0.04 70 1010.3
20260507130003 68 160 3.5 8.7 0.00 0.04 0.04 71 1010.2
20260507125503 67 163 3.5 9.6 0.00 0.04 0.04 71 1010.3
20260507125003 67 151 4.3 10.4 0.00 0.04 0.04 71 1010.3
20260507124503 67 145 5.2 9.6 0.00 0.04 0.04 71 1010.4
20260507124003 67 149 4.3 10.4 0.00 0.04 0.04 71 1010.4
20260507123503 67 150 3.5 7.0 0.00 0.04 0.04 71 1010.5
20260507123003 67 143 3.5 7.8 0.00 0.04 0.04 71 1010.6
20260507122503 67 149 3.5 9.6 0.00 0.04 0.04 71 1010.6
20260507122004 67 144 4.3 9.6 0.00 0.04 0.04 71 1010.4
20260507121503 67 153 4.3 10.4 0.00 0.04 0.04 71 1010.6
20260507121003 67 162 3.5 7.0 0.00 0.04 0.04 71 1010.5
20260507120503 66 151 5.2 9.6 0.00 0.04 0.04 71 1010.6
20260507120004 67 143 6.1 11.3 0.00 0.04 0.04 71 1010.6
20260507115503 67 141 4.3 11.3 0.00 0.04 0.04 71 1010.7
20260507115003 68 160 2.6 7.8 0.00 0.04 0.04 71 1011.0
20260507114503 67 160 3.5 7.0 0.00 0.04 0.04 71 1011.1
20260507114003 67 153 3.5 9.6 0.00 0.04 0.04 72 1011.0
20260507113503 67 161 3.5 9.6 0.00 0.04 0.04 72 1011.1
20260507113003 67 168 1.7 5.2 0.00 0.04 0.04 72 1010.9
20260507112503 67 156 4.3 10.4 0.00 0.04 0.04 72 1010.9
20260507112003 67 152 4.3 9.6 0.00 0.04 0.04 72 1010.9
20260507111504 67 166 3.5 9.6 0.00 0.04 0.04 72 1011.0
20260507111003 67 155 1.7 6.1 0.00 0.04 0.04 72 1011.2
20260507110503 66 170 1.7 7.8 0.00 0.04 0.04 71 1011.1
20260507110003 65 144 1.7 9.6 0.00 0.04 0.04 72 1011.1
20260507105503 65 145 3.5 8.7 0.00 0.04 0.04 72 1011.2
20260507105003 65 166 1.7 5.2 0.00 0.04 0.04 72 1011.2
20260507104504 65 147 4.3 9.6 0.00 0.04 0.04 72 1011.2
20260507104003 65 145 3.5 9.6 0.00 0.04 0.04 72 1011.2
20260507103503 65 145 4.3 11.3 0.00 0.04 0.04 72 1011.1
20260507103003 65 145 2.6 8.7 0.00 0.04 0.04 72 1011.2
20260507102503 65 143 2.6 9.6 0.00 0.04 0.04 72 1011.3
20260507102003 65 139 2.6 8.7 0.00 0.04 0.04 72 1011.2
20260507101503 65 152 2.6 7.8 0.00 0.04 0.04 72 1011.1
20260507101003 65 139 2.6 7.0 0.00 0.04 0.04 72 1011.1
20260507100503 65 153 3.5 8.7 0.00 0.04 0.04 72 1011.2
20260507100003 65 155 3.5 7.0 0.00 0.04 0.04 72 1011.3
20260507095503 64 142 4.3 10.4 0.00 0.04 0.04 72 1011.3
20260507095003 64 127 3.5 10.4 0.00 0.04 0.04 72 1011.2
20260507094503 64 147 6.1 13.0 0.00 0.04 0.04 72 1011.2
20260507094003 64 148 5.2 13.9 0.00 0.04 0.04 72 1011.2
20260507093503 65 143 4.3 11.3 0.00 0.04 0.04 72 1011.1
20260507093003 65 147 3.5 10.4 0.00 0.04 0.04 72 1011.2
20260507092503 65 144 5.2 14.8 0.00 0.04 0.04 72 1011.2
20260507092003 65 138 4.3 12.2 0.00 0.04 0.04 73 1011.1
20260507091503 64 147 5.2 14.8 0.00 0.04 0.04 73 1010.9
20260507091003 64 134 5.2 13.0 0.00 0.04 0.04 73 1010.7
20260507090503 64 141 3.5 11.3 0.00 0.04 0.04 73 1010.9
20260507090004 64 130 3.5 12.2 0.00 0.04 0.04 73 1010.9
20260507085503 64 129 5.2 12.2 0.00 0.04 0.04 73 1010.7
20260507085003 64 136 3.5 12.2 0.00 0.04 0.04 73 1010.6
20260507084503 64 121 3.5 12.2 0.00 0.04 0.04 73 1010.5
20260507084003 63 129 6.1 15.6 0.00 0.04 0.04 73 1010.5
20260507083503 63 134 4.3 11.3 0.00 0.04 0.04 73 1010.2
20260507083003 63 127 6.1 15.6 0.00 0.04 0.04 73 1010.1
20260507082503 63 128 5.2 11.3 0.00 0.04 0.04 73 1010.2
20260507082003 63 121 7.0 14.8 0.00 0.04 0.04 73 1010.2
20260507081503 63 115 4.3 11.3 0.00 0.04 0.04 74 1010.4
20260507081003 63 87 3.5 12.2 0.00 0.04 0.04 74 1010.5
20260507080503 63 91 5.2 15.6 0.00 0.04 0.04 74 1010.3
20260507080003 63 107 5.2 13.9 0.00 0.04 0.04 74 1010.3
20260507075503 63 123 4.3 10.4 0.00 0.04 0.04 74 1010.5
20260507075003 62 135 4.3 11.3 0.00 0.04 0.04 74 1010.8
20260507074503 62 126 3.5 12.2 0.00 0.04 0.04 74 1010.7
20260507074003 63 74 3.5 8.7 0.00 0.04 0.04 74 1010.7
20260507073503 63 106 4.3 11.3 0.00 0.04 0.04 74 1011.0
20260507073003 62 87 4.3 10.4 0.00 0.04 0.04 74 1011.0
20260507072503 62 69 4.3 11.3 0.00 0.04 0.04 74 1011.0
20260507072003 62 79 4.3 10.4 0.00 0.04 0.04 74 1011.2
20260507071503 63 73 4.3 10.4 0.00 0.04 0.04 74 1011.4
20260507071003 62 78 4.3 13.0 0.00 0.04 0.04 74 1011.6
20260507070503 62 56 3.5 7.8 0.00 0.04 0.04 75 1011.7
20260507070005 62 102 1.7 5.2 0.00 0.04 0.04 75 1012.1
20260507065503 62 119 1.7 4.3 0.00 0.04 0.04 75 1012.2
20260507065003 62 87 2.6 10.4 0.00 0.04 0.04 75 1011.8
20260507064503 62 66 2.6 7.0 0.00 0.04 0.04 74 1011.9
20260507064003 62 99 1.7 4.3 0.00 0.04 0.04 74 1012.1
20260507063503 62 63 2.6 8.7 0.00 0.04 0.04 74 1011.9
20260507063003 62 55 2.6 6.1 0.00 0.04 0.04 74 1011.6
20260507062503 62 49 2.6 4.3 0.00 0.04 0.04 74 1011.7
20260507062003 62 59 2.6 4.3 0.00 0.04 0.04 74 1011.8
20260507061503 61 52 3.5 6.1 0.00 0.04 0.04 74 1011.7
20260507061003 61 42 4.3 7.8 0.00 0.04 0.04 74 1011.6
20260507060503 61 40 3.5 6.1 0.00 0.04 0.04 74 1011.4
20260507060003 61 43 3.5 5.2 0.00 0.04 0.04 74 1011.6
20260507055503 61 31 4.3 7.8 0.00 0.04 0.04 74 1011.5
20260507055003 61 31 3.5 6.1 0.00 0.04 0.04 74 1011.4
20260507054503 61 39 3.5 7.8 0.00 0.04 0.04 74 1011.5
20260507054003 61 40 2.6 5.2 0.00 0.04 0.04 74 1011.7
20260507053503 61 47 2.6 5.2 0.00 0.04 0.04 75 1011.6
20260507053003 61 49 3.5 9.6 0.00 0.04 0.04 74 1011.5
20260507052503 61 51 4.3 8.7 0.00 0.04 0.04 74 1011.5
20260507052003 61 71 3.5 7.0 0.00 0.04 0.04 74 1011.4
20260507051503 61 71 1.7 7.0 0.00 0.04 0.04 74 1011.4
20260507051003 61 78 2.6 7.8 0.00 0.04 0.04 75 1011.4
20260507050503 61 64 1.7 6.1 0.00 0.04 0.04 74 1011.3
20260507050004 61 83 1.7 7.0 0.00 0.04 0.04 74 1011.1
20260507045503 61 100 1.7 7.8 0.00 0.04 0.04 74 1010.9
20260507045003 61 71 2.6 7.8 0.00 0.04 0.04 74 1010.5
20260507044503 61 52 5.2 9.6 0.00 0.04 0.04 75 1010.0
20260507044003 60 55 7.8 13.9 0.00 0.04 0.04 74 1009.8
20260507043503 61 55 6.1 12.2 0.00 0.04 0.04 74 1009.6
20260507043003 61 73 7.0 14.8 0.00 0.04 0.04 74 1009.6
20260507042503 61 59 7.0 12.2 0.00 0.04 0.04 74 1009.6
20260507042003 61 52 9.6 14.8 0.00 0.04 0.04 74 1009.8
20260507041503 61 58 7.8 13.0 0.00 0.04 0.04 74 1010.0
20260507041003 61 57 7.8 11.3 0.00 0.04 0.04 74 1010.2
20260507040503 61 54 7.0 11.3 0.02 0.04 0.04 74 1010.3
20260507040003 61 53 5.2 9.6 0.02 0.04 0.04 74 1010.3
20260507035503 61 55 4.3 8.7 0.02 0.04 0.04 74 1010.6
20260507035003 61 58 4.3 9.6 0.02 0.04 0.04 74 1010.4
20260507034503 61 57 4.3 9.6 0.02 0.04 0.04 74 1010.5
20260507034003 61 56 5.2 9.6 0.02 0.04 0.04 74 1010.5
20260507033503 61 52 5.2 11.3 0.02 0.04 0.04 74 1010.3
20260507033003 61 48 5.2 11.3 0.02 0.04 0.04 74 1010.2
20260507032503 61 50 3.5 7.8 0.02 0.04 0.04 74 1010.3
20260507032003 61 59 4.3 7.8 0.02 0.04 0.04 74 1010.3
20260507031503 61 51 5.2 9.6 0.02 0.04 0.04 74 1010.2
20260507031003 61 56 4.3 7.0 0.02 0.04 0.04 74 1010.3
20260507030503 61 57 3.5 5.2 0.00 0.02 0.02 74 1010.6
20260507030003 61 61 0.9 4.3 0.00 0.02 0.02 74 1010.6
20260507025503 61 60 1.7 3.5 0.00 0.02 0.02 74 1010.6
20260507025003 61 60 0.9 4.3 0.00 0.02 0.02 74 1010.6
20260507024503 61 82 0.9 3.5 0.00 0.02 0.02 74 1010.6
20260507024003 61 77 0.9 3.5 0.00 0.02 0.02 74 1010.5
20260507023503 61 86 1.7 6.1 0.00 0.02 0.02 74 1010.4
20260507023003 61 93 1.7 6.1 0.00 0.02 0.02 74 1010.3
20260507022503 62 94 1.7 8.7 0.00 0.02 0.02 74 1010.5
20260507022003 62 124 1.7 7.8 0.00 0.02 0.02 74 1010.4
20260507021503 61 118 2.6 7.0 0.00 0.02 0.02 74 1010.4
20260507021003 61 116 0.9 5.2 0.00 0.02 0.02 74 1010.3
20260507020503 61 64 1.7 6.1 0.02 0.02 0.02 74 1010.2
20260507020003 62 93 2.6 7.0 0.02 0.02 0.02 74 1009.9
20260507015503 62 68 1.7 5.2 0.02 0.02 0.02 74 1009.7
20260507015003 62 70 4.3 8.7 0.02 0.02 0.02 74 1009.5
20260507014503 62 67 3.5 8.7 0.02 0.02 0.02 74 1009.4
20260507014003 62 62 3.5 9.6 0.02 0.02 0.02 74 1009.4
20260507013503 62 59 5.2 12.2 0.02 0.02 0.02 73 1009.3
20260507013003 62 30 9.6 13.9 0.02 0.02 0.02 73 1008.8
20260507012503 62 24 7.8 14.8 0.02 0.02 0.02 73 1008.8
20260507012003 62 26 3.5 6.1 0.02 0.02 0.02 73 1010.0
20260507011503 62 52 0.0 1.7 0.02 0.02 0.02 73 1010.5
20260507011003 62 74 0.0 1.7 0.02 0.02 0.02 73 1010.5
20260507010503 62 55 0.0 1.7 0.00 0.00 0.00 73 1010.2
20260507010003 62 59 0.9 1.7 0.00 0.00 0.00 73 1010.1
20260507005503 62 115 0.9 1.7 0.00 0.00 0.00 73 1010.1
20260507005003 62 66 0.9 6.1 0.00 0.00 0.00 73 1009.9
20260507004503 62 69 2.6 5.2 0.00 0.00 0.00 73 1009.7
20260507004003 62 143 2.6 7.8 0.00 0.00 0.00 73 1010.1
20260507003503 62 128 0.9 3.5 0.00 0.00 0.00 73 1010.0
20260507003003 62 95 0.9 3.5 0.00 0.00 0.00 73 1009.7
20260507002503 62 108 0.9 6.1 0.00 0.00 0.00 73 1009.6
20260507002003 62 93 0.9 4.3 0.00 0.00 0.00 73 1009.7
20260507001503 62 99 0.9 3.5 0.00 0.00 0.00 73 1009.6
20260507001003 62 98 0.9 3.5 0.00 0.00 0.00 73 1009.6
20260507000503 62 83 0.9 4.3 0.00 0.00 0.00 73 1009.7
20260507000003 62 126 0.9 5.2 0.00 0.00 0.00 73 1009.8
20260506235503 62 108 1.7 5.2 0.00 0.00 0.00 73 1009.7
20260506235003 62 117 1.7 4.3 0.00 0.00 0.00 73 1009.8
20260506234503 62 123 2.6 6.1 0.00 0.00 0.00 73 1009.9
20260506234003 62 135 1.7 5.2 0.00 0.00 0.00 73 1009.9
20260506233503 62 119 1.7 4.3 0.00 0.00 0.00 73 1009.8
20260506233003 62 140 2.6 6.1 0.00 0.00 0.00 73 1009.8
20260506232503 62 130 2.6 6.1 0.00 0.00 0.00 73 1010.0
20260506232003 62 100 0.9 5.2 0.00 0.00 0.00 73 1009.8
20260506231503 62 74 1.7 5.2 0.00 0.00 0.00 72 1009.6
20260506231003 62 123 0.9 4.3 0.00 0.00 0.00 72 1009.8
20260506230503 62 106 1.7 5.2 0.00 0.00 0.00 72 1009.9
20260506230003 63 71 2.6 7.8 0.00 0.00 0.00 72 1009.6
20260506225503 63 87 1.7 7.0 0.00 0.00 0.00 72 1009.8
20260506225003 63 114 1.7 5.2 0.00 0.00 0.00 72 1010.2
20260506224503 63 125 1.7 7.0 0.00 0.00 0.00 72 1010.3
20260506224003 63 122 1.7 5.2 0.00 0.00 0.00 72 1010.3
20260506223503 63 116 0.9 3.5 0.00 0.00 0.00 72 1010.2
20260506223003 63 127 1.7 4.3 0.00 0.00 0.00 72 1010.2
20260506222503 63 130 0.9 5.2 0.00 0.00 0.00 72 1010.2
20260506222003 63 139 1.7 7.8 0.00 0.00 0.00 72 1010.0
20260506221504 63 134 1.7 7.0 0.00 0.00 0.00 72 1009.9
20260506221003 63 130 2.6 8.7 0.00 0.00 0.00 72 1010.0
20260506220503 63 126 2.6 7.8 0.00 0.00 0.00 72 1009.9
20260506220003 63 136 3.5 7.8 0.00 0.00 0.00 72 1009.9
20260506215503 63 144 2.6 8.7 0.00 0.00 0.00 72 1010.0
20260506215003 63 137 3.5 8.7 0.00 0.00 0.00 72 1010.0
20260506214503 63 146 3.5 9.6 0.00 0.00 0.00 72 1009.9
20260506214003 63 142 2.6 8.7 0.00 0.00 0.00 72 1009.9
20260506213503 63 140 4.3 10.4 0.00 0.00 0.00 72 1009.9
20260506213003 63 138 4.3 10.4 0.00 0.00 0.00 72 1009.9
20260506212503 63 140 4.3 13.0 0.00 0.00 0.00 72 1009.8
20260506212003 63 140 5.2 12.2 0.00 0.00 0.00 72 1009.9
20260506211503 63 150 3.5 8.7 0.00 0.00 0.00 72 1010.0
20260506211003 63 143 4.3 11.3 0.00 0.00 0.00 72 1009.9
20260506210503 63 148 4.3 9.6 0.00 0.00 0.00 72 1009.9
20260506210003 63 140 5.2 12.2 0.00 0.00 0.00 72 1010.0
20260506205503 63 136 4.3 12.2 0.00 0.00 0.00 72 1009.8
20260506205003 63 132 4.3 10.4 0.00 0.00 0.00 72 1009.9
20260506204503 63 138 3.5 11.3 0.00 0.00 0.00 72 1009.9
20260506204003 63 129 4.3 8.7 0.00 0.00 0.00 72 1009.9
20260506203503 63 146 4.3 8.7 0.00 0.00 0.00 72 1010.0
20260506203003 63 139 3.5 7.8 0.00 0.00 0.00 72 1010.0
20260506202503 63 145 4.3 10.4 0.00 0.00 0.00 72 1009.9
20260506202003 63 146 4.3 9.6 0.00 0.00 0.00 72 1009.9
20260506201503 63 144 5.2 13.0 0.00 0.00 0.00 72 1009.7
20260506201003 63 141 3.5 8.7 0.00 0.00 0.00 72 1009.9
20260506200503 63 139 5.2 13.0 0.00 0.00 0.00 72 1009.8
20260506200003 63 143 4.3 13.0 0.00 0.00 0.00 72 1009.9
20260506195503 63 132 4.3 10.4 0.00 0.00 0.00 72 1009.6
20260506195003 63 137 3.5 10.4 0.00 0.00 0.00 72 1009.6
20260506194003 63 130 4.3 8.7 0.00 0.00 0.00 72 1009.6
20260506193503 63 143 2.6 7.0 0.00 0.00 0.00 72 1009.6
20260506193003 63 123 2.6 7.8 0.00 0.00 0.00 72 1009.6
20260506192503 63 130 3.5 12.2 0.00 0.00 0.00 72 1009.5
20260506192003 63 124 3.5 10.4 0.00 0.00 0.00 72 1009.5
20260506191503 63 135 2.6 5.2 0.00 0.00 0.00 72 1009.6
20260506191003 63 125 1.7 4.3 0.00 0.00 0.00 72 1009.5
20260506190503 63 140 2.6 7.8 0.00 0.00 0.00 72 1009.5
20260506190003 63 124 3.5 7.8 0.00 0.00 0.00 72 1009.4
20260506185503 63 126 3.5 6.1 0.00 0.00 0.00 72 1009.4
20260506185003 63 118 2.6 8.7 0.00 0.00 0.00 72 1009.4
20260506184503 63 133 3.5 10.4 0.00 0.00 0.00 72 1009.3
20260506184003 63 126 3.5 7.8 0.00 0.00 0.00 72 1009.3
20260506183503 63 151 3.5 7.8 0.00 0.00 0.00 72 1009.4
20260506183003 63 121 2.6 10.4 0.00 0.00 0.00 72 1009.4
20260506182503 63 121 2.6 9.6 0.00 0.00 0.00 72 1009.5
20260506182003 63 136 5.2 11.3 0.00 0.00 0.00 72 1009.5
20260506181503 63 126 4.3 10.4 0.00 0.00 0.00 72 1009.6
20260506181003 63 119 4.3 11.3 0.00 0.00 0.00 72 1009.5
20260506180503 63 131 3.5 7.8 0.00 0.00 0.00 72 1009.4
20260506180004 63 135 3.5 10.4 0.00 0.00 0.00 72 1009.6
20260506175503 63 131 2.6 9.6 0.00 0.00 0.00 72 1009.5
20260506175003 63 130 3.5 8.7 0.00 0.00 0.00 72 1009.5
20260506174503 63 127 4.3 10.4 0.00 0.00 0.00 72 1009.4
20260506174003 64 135 2.6 9.6 0.00 0.00 0.00 72 1009.4
20260506173503 64 121 3.5 11.3 0.00 0.00 0.00 72 1009.4
20260506173003 64 128 2.6 6.1 0.00 0.00 0.00 72 1009.5
20260506172503 64 145 4.3 10.4 0.00 0.00 0.00 72 1009.3
20260506172003 64 132 2.6 7.8 0.00 0.00 0.00 72 1009.4
20260506171503 63 129 3.5 9.6 0.00 0.00 0.00 72 1009.2
20260506171003 64 117 3.5 9.6 0.00 0.00 0.00 72 1009.1
20260506170503 64 130 4.3 9.6 0.00 0.00 0.00 72 1008.8